| time (UTC) | temp F | wind direction | speed knots | gust knots | rain 1hr in | rain 24hr in | rain mn in | humidity % | barometer mb |
| 20260505064903 | 61 | 50 | 11.3 | 15.6 | 0.03 | 0.09 | 0.09 | 81 | 1001.9 |
| 20260505064403 | 62 | 19 | 7.8 | 12.2 | 0.03 | 0.09 | 0.09 | 79 | 1001.7 |
| 20260505063903 | 62 | 65 | 5.2 | 13.9 | 0.02 | 0.08 | 0.08 | 77 | 1001.6 |
| 20260505063404 | 64 | 93 | 7.0 | 13.9 | 0.02 | 0.08 | 0.08 | 75 | 1001.5 |
| 20260505061906 | 66 | 316 | 1.7 | 6.1 | 0.00 | 0.06 | 0.06 | 83 | 1001.6 |
| 20260505060903 | 66 | 83 | 2.6 | 5.2 | 0.01 | 0.06 | 0.06 | 83 | 1000.7 |
| 20260505060404 | 66 | 72 | 2.6 | 8.7 | 0.04 | 0.06 | 0.06 | 83 | 1000.8 |
| 20260505053903 | 67 | 53 | 8.7 | 11.3 | 0.06 | 0.06 | 0.06 | 83 | 1000.6 |
| 20260505051904 | 68 | 48 | 0.9 | 4.3 | 0.06 | 0.06 | 0.06 | 78 | 1000.1 |
| 20260505051403 | 69 | 111 | 2.6 | 6.1 | 0.06 | 0.06 | 0.06 | 75 | 1000.2 |
| 20260505050403 | 70 | 155 | 0.9 | 5.2 | 0.02 | 0.02 | 0.02 | 72 | 1000.5 |
| 20260505041404 | 72 | 103 | 0.0 | 1.7 | 0.00 | 0.00 | 0.00 | 62 | 999.8 |
| 20260505040903 | 72 | 173 | 0.9 | 6.1 | 0.00 | 0.00 | 0.00 | 62 | 999.8 |
| 20260505040404 | 72 | 157 | 0.9 | 4.3 | 0.00 | 0.00 | 0.00 | 62 | 999.9 |
| 20260505034904 | 72 | 92 | 0.9 | 4.3 | 0.00 | 0.00 | 0.00 | 61 | 999.8 |
| 20260505034404 | 73 | 73 | 1.7 | 4.3 | 0.00 | 0.00 | 0.00 | 60 | 999.8 |
| 20260505033903 | 73 | 81 | 2.6 | 6.1 | 0.00 | 0.00 | 0.00 | 60 | 999.8 |
| 20260505033404 | 73 | 87 | 4.3 | 7.8 | 0.00 | 0.00 | 0.00 | 60 | 999.9 |
| 20260505031904 | 73 | 98 | 1.7 | 4.3 | 0.00 | 0.00 | 0.00 | 58 | 1000.3 |
| 20260505030904 | 74 | 93 | 2.6 | 8.7 | 0.00 | 0.00 | 0.00 | 57 | 999.9 |
| 20260505024903 | 74 | 123 | 4.3 | 7.8 | 0.00 | 0.00 | 0.00 | 56 | 1000.2 |
| 20260505024403 | 74 | 150 | 2.6 | 6.1 | 0.00 | 0.00 | 0.00 | 56 | 1000.1 |
| 20260505023904 | 74 | 107 | 1.7 | 5.2 | 0.00 | 0.00 | 0.00 | 55 | 1000.0 |
| 20260505023404 | 74 | 124 | 2.6 | 8.7 | 0.00 | 0.00 | 0.00 | 55 | 999.9 |
| 20260505021904 | 74 | 149 | 1.7 | 6.1 | 0.00 | 0.00 | 0.00 | 53 | 1000.0 |
| 20260505021403 | 75 | 120 | 4.3 | 11.3 | 0.00 | 0.00 | 0.00 | 52 | 1000.0 |
| 20260505020903 | 75 | 122 | 4.3 | 11.3 | 0.00 | 0.00 | 0.00 | 52 | 1000.1 |
| 20260505020404 | 75 | 198 | 4.3 | 11.3 | 0.00 | 0.00 | 0.00 | 51 | 1000.3 |
| 20260505014905 | 75 | 162 | 4.3 | 8.7 | 0.00 | 0.00 | 0.00 | 50 | 1000.0 |
| 20260505014404 | 76 | 144 | 2.6 | 6.1 | 0.00 | 0.00 | 0.00 | 49 | 999.6 |
| 20260505013905 | 76 | 154 | 2.6 | 7.8 | 0.00 | 0.00 | 0.00 | 49 | 999.8 |
| 20260505013404 | 76 | 129 | 4.3 | 13.0 | 0.00 | 0.00 | 0.00 | 48 | 999.5 |
| 20260505011904 | 76 | 138 | 4.3 | 7.8 | 0.00 | 0.00 | 0.00 | 46 | 999.1 |
| 20260505010903 | 77 | 118 | 2.6 | 8.7 | 0.00 | 0.00 | 0.00 | 46 | 998.9 |
| 20260505010405 | 77 | 152 | 4.3 | 13.9 | 0.00 | 0.00 | 0.00 | 45 | 998.9 |
| 20260505004404 | 78 | 141 | 1.7 | 7.8 | 0.00 | 0.00 | 0.00 | 43 | 999.0 |
| 20260505003904 | 78 | 133 | 3.5 | 11.3 | 0.00 | 0.00 | 0.00 | 43 | 999.0 |
| 20260505003404 | 78 | 138 | 4.3 | 12.2 | 0.00 | 0.00 | 0.00 | 42 | 999.0 |
| 20260505001404 | 79 | 131 | 3.5 | 7.8 | 0.00 | 0.00 | 0.00 | 40 | 999.2 |
| 20260505000904 | 79 | 148 | 4.3 | 7.8 | 0.00 | 0.00 | 0.00 | 39 | 999.3 |
| 20260505000405 | 79 | 168 | 5.2 | 13.0 | 0.00 | 0.00 | 0.00 | 39 | 999.3 |
| 20260504234904 | 80 | 135 | 7.8 | 12.2 | 0.00 | 0.00 | 0.00 | 39 | 999.4 |
| 20260504233904 | 80 | 189 | 1.7 | 11.3 | 0.00 | 0.00 | 0.00 | 39 | 999.4 |
| 20260504231904 | 81 | 175 | 5.2 | 14.8 | 0.00 | 0.00 | 0.00 | 38 | 999.3 |
| 20260504231405 | 81 | 127 | 5.2 | 12.2 | 0.00 | 0.00 | 0.00 | 38 | 999.3 |
| 20260504230904 | 81 | 155 | 4.3 | 19.1 | 0.00 | 0.00 | 0.00 | 38 | 999.2 |
| 20260504230404 | 82 | 161 | 6.1 | 19.1 | 0.00 | 0.00 | 0.00 | 37 | 999.1 |
| 20260504224405 | 82 | 150 | 7.8 | 14.8 | 0.00 | 0.00 | 0.00 | 36 | 999.1 |
| 20260504223904 | 82 | 128 | 7.0 | 12.2 | 0.00 | 0.00 | 0.00 | 36 | 999.1 |
| 20260504221903 | 83 | 166 | 6.1 | 12.2 | 0.00 | 0.00 | 0.00 | 34 | 999.1 |
| 20260504221402 | 84 | 181 | 7.8 | 15.6 | 0.00 | 0.00 | 0.00 | 34 | 999.2 |
| 20260504220902 | 84 | 167 | 6.1 | 8.7 | 0.00 | 0.00 | 0.00 | 34 | 999.1 |
| 20260504220403 | 84 | 164 | 6.1 | 14.8 | 0.00 | 0.00 | 0.00 | 33 | 999.2 |
| 20260504214904 | 85 | 185 | 7.0 | 14.8 | 0.00 | 0.00 | 0.00 | 32 | 999.3 |
| 20260504214403 | 85 | 153 | 7.8 | 19.1 | 0.00 | 0.00 | 0.00 | 32 | 999.4 |
| 20260504213903 | 86 | 131 | 6.1 | 11.3 | 0.00 | 0.00 | 0.00 | 32 | 999.3 |
| 20260504213403 | 86 | 229 | 7.0 | 22.6 | 0.00 | 0.00 | 0.00 | 31 | 999.4 |
| 20260504211905 | 88 | 226 | 8.7 | 14.8 | 0.00 | 0.00 | 0.00 | 27 | 999.4 |
| 20260504211402 | 88 | 171 | 8.7 | 12.2 | 0.00 | 0.00 | 0.00 | 27 | 999.5 |
| 20260504210903 | 88 | 141 | 6.1 | 12.2 | 0.00 | 0.00 | 0.00 | 27 | 999.5 |
| 20260504210403 | 88 | 93 | 3.5 | 13.0 | 0.00 | 0.00 | 0.00 | 28 | 999.6 |
| 20260504204404 | 88 | 240 | 4.3 | 7.8 | 0.00 | 0.00 | 0.00 | 27 | 999.9 |
| 20260504203902 | 87 | 260 | 6.1 | 13.0 | 0.00 | 0.00 | 0.00 | 26 | 999.9 |
| 20260504201902 | 87 | 263 | 8.7 | 12.2 | 0.00 | 0.00 | 0.00 | 27 | 1000.3 |
| 20260504201403 | 87 | 212 | 6.1 | 12.2 | 0.00 | 0.00 | 0.00 | 27 | 1000.4 |
| 20260504200902 | 87 | 139 | 4.3 | 8.7 | 0.00 | 0.00 | 0.00 | 26 | 1000.5 |
| 20260504200403 | 87 | 248 | 6.1 | 12.2 | 0.00 | 0.00 | 0.00 | 28 | 1000.6 |
| 20260504194902 | 85 | 257 | 4.3 | 8.7 | 0.00 | 0.00 | 0.00 | 30 | 1000.8 |
| 20260504194403 | 86 | 228 | 5.2 | 7.8 | 0.00 | 0.00 | 0.00 | 28 | 1000.9 |
| 20260504193902 | 86 | 143 | 1.7 | 7.0 | 0.00 | 0.00 | 0.00 | 29 | 1001.0 |
| 20260504191903 | 85 | 181 | 2.6 | 7.8 | 0.00 | 0.00 | 0.00 | 30 | 1001.4 |
| 20260504190903 | 82 | 19 | 2.6 | 6.1 | 0.00 | 0.00 | 0.00 | 32 | 1001.6 |
| 20260504184903 | 82 | 181 | 3.5 | 7.8 | 0.00 | 0.00 | 0.00 | 34 | 1001.7 |
| 20260504184402 | 82 | 158 | 3.5 | 11.3 | 0.00 | 0.00 | 0.00 | 32 | 1001.9 |
| 20260504183902 | 82 | 250 | 4.3 | 11.3 | 0.00 | 0.00 | 0.00 | 32 | 1002.0 |
| 20260504183403 | 81 | 161 | 2.6 | 8.7 | 0.00 | 0.00 | 0.00 | 32 | 1001.9 |
| 20260504181903 | 83 | 191 | 6.1 | 8.7 | 0.00 | 0.00 | 0.00 | 31 | 1002.0 |
| 20260504181402 | 82 | 245 | 2.6 | 12.2 | 0.00 | 0.00 | 0.00 | 32 | 1002.1 |
| 20260504180403 | 81 | 267 | 5.2 | 8.7 | 0.00 | 0.00 | 0.00 | 32 | 1002.1 |
| 20260504174402 | 82 | 230 | 6.1 | 8.7 | 0.00 | 0.00 | 0.00 | 33 | 1002.4 |
| 20260504173902 | 82 | 259 | 4.3 | 7.0 | 0.00 | 0.00 | 0.00 | 35 | 1002.5 |
| 20260504173403 | 81 | 242 | 2.6 | 7.0 | 0.00 | 0.00 | 0.00 | 35 | 1002.5 |
| 20260504171903 | 78 | 232 | 6.1 | 8.7 | 0.00 | 0.00 | 0.00 | 37 | 1002.6 |
| 20260504171402 | 78 | 246 | 6.1 | 8.7 | 0.00 | 0.00 | 0.00 | 38 | 1002.5 |
| 20260504170902 | 78 | 206 | 7.0 | 11.3 | 0.00 | 0.00 | 0.00 | 38 | 1002.5 |
| 20260504170403 | 78 | 216 | 7.8 | 13.0 | 0.00 | 0.00 | 0.00 | 38 | 1002.5 |
| 20260504160402 | 73 | 199 | 7.8 | 15.6 | 0.00 | 0.00 | 0.00 | 42 | 1002.2 |
| 20260504150903 | 72 | 231 | 4.3 | 12.2 | 0.00 | 0.00 | 0.00 | 44 | 1002.7 |
| 20260504150403 | 71 | 180 | 8.7 | 15.6 | 0.00 | 0.00 | 0.00 | 45 | 1002.7 |
| 20260504140403 | 67 | 191 | 7.8 | 11.3 | 0.00 | 0.00 | 0.00 | 49 | 1002.9 |
| 20260504130403 | 63 | 175 | 7.0 | 11.3 | 0.00 | 0.00 | 0.00 | 54 | 1003.2 |
| 20260504110404 | 62 | 179 | 7.8 | 13.0 | 0.00 | 0.00 | 0.00 | 51 | 1003.3 |
| 20260504100403 | 63 | 146 | 6.1 | 14.8 | 0.00 | 0.00 | 0.00 | 48 | 1003.7 |
| 20260504081904 | 65 | 167 | 5.2 | 7.8 | 0.00 | 0.00 | 0.00 | 43 | 1004.6 |
| 20260504081403 | 65 | 164 | 6.1 | 12.2 | 0.00 | 0.00 | 0.00 | 43 | 1004.6 |
| 20260504080903 | 65 | 174 | 8.7 | 13.9 | 0.00 | 0.00 | 0.00 | 43 | 1004.7 |
| 20260504080403 | 66 | 194 | 6.1 | 13.0 | 0.00 | 0.00 | 0.00 | 43 | 1004.7 |